Погода в Барнауле

Погода в Барнауле : погода сейчас, прогноз погоды и архив. Всё, что Вы хотите узнать о погоде в Барнауле!

Хотите узнать прогноз погоды Барнаул? Тогда Вам сюда: Погода Барнаул

Поиск расширенной информации на нашем сайте:

Другие новости

Новости СМИ2

Главная страница сайта

Новости сайта

03.07.2017

Напоминаем, что на нашем специализированном сайте Метеоцентр.Азия вы можете получить высокодетализированные автоматические прогнозы погоды по пунктам России, СНГ и мира в авиационном формате (включающие направление и скорость ветра, видимость, явления погоды, количество и форму облачности, нижнюю и верхнюю границу облачности).

Рекомендуем: купить airpods https://vk.com/apple_airpods

Погода в Барнауле - сегодня

Время (UTC), дата Ветер
(°,м/с) 
Видим.   Явления Облачность Т
(°С)
Тd
(°С)
f(%) Тe
(°С)
Pmin
(гПа)
dP
(гПа)
Po
(мм)
O2
(г/м3)
Тmin Tmax R s Состояние
почвы
21 16.08.17 тихо ()   10 км    ясно 
+6.6 +6.1 97 +7  1017.8  -0.1  746  293           
00 17.08.17 тихо ()   10 км    3/0 средняя 
[Ac trans]
+6.4 +6.1 98 +6  1018  0.1  747  293  +6.1        сухая 
03 17.08.17 290 (З) 10 км    3/0 верхняя 
[Ci fib]
+15.4 +10.2 71 +19  1017.3  0.1  747  283           
06 17.08.17 320 (СЗ) 10 км    4/0 средняя 
[Ac trans]
+20.7 +9.2 48 +21  1016.2  -0.8  746  278           
09 17.08.17 320 (СЗ) 10 км    8/8 1000 м 
[Cu med, cong]
+22.1 +9.6 45 +23  1015.3  -0.7  746  276           
12 17.08.17 300 (СЗ) 10 км    4/4 1000 м 
[Cu med, cong]
+21.5 +10.6 50 +24  1014.8  -0.5  745  276    +23       
15 17.08.17 тихо ()   10 км    8/0 верхняя 
[Ci fib]
+13.5 +12.1 91 +18  1016.2  0.7  746  284           
18 17.08.17 тихо ()   10 км    ясно 
+11.1 +10.6 97 +13  1016.1  -0.2  746  287           
21 17.08.17 тихо ()   10 км    ясно 
+10 +9.6 97 +11  1015.4  -0.8  745  288           
00 18.08.17 тихо ()   4000 м  дымка  8/0 верхняя 
[Ci fib]
+9 +8.8 99 +9  1015.4  745  289  +8.8        сухая 
03 18.08.17 тихо ()   10 км    4/0 средняя, верхняя 
[Ac trans|Ci fib]
+19.7 +11.7 60 +23  1014.5  0.1  745  278           
06 18.08.17 330 (СЗ) 10 км    8/8 600 м 
[Cu med, cong]
+22.4 +10.2 46 +24  1013.7  -0.6  744  275           
09 18.08.17 260 (З) 10 км    8/6 600 м средняя, верхняя 
[Cu med, cong|Ac trans|Ci fib]
+23.3 +11.2 46 +26  1012.8  -0.9  744  274           
12 18.08.17 280 (З) 10 км    9/9 600 м кучево-дожд., средняя, верхняя 
[Cb calv|Ac trans|Ci fib]
+19.4 +15.1 76 +29  1013.7  0.7  744  277    +24.2       
15 18.08.17 280 (З) 10 км    10/10 600 м 
[Sc]
+16.4 +14.7 90 +25  1015.2  1.2  745  280           
18 18.08.17 280 (З) 10 км  {дождь}  10/10 600 м 
[Sc]
+14.5 +13.9 96 +22  1015.5  0.2  745  282           
21 18.08.17 290 (З) 10 км    10/10 600 м 
[Sc]
+13.9 +13 94 +20  1015.5  745  283           
00 19.08.17 280 (З) 10 км    9/9 600 м средняя, верхняя 
[Sc|Ac trans|Ci fib]
+12.7 +11.9 95 +17  1016.5  0.8  746  285  +12.7    0.0    сухая 
03 19.08.17 280 (З) 10 км    10/10 600 м кучево-дожд. 
[Cb calv]
+13.2 +11.2 88 +16  1017.5  747  285  +12.5         
06 19.08.17 270 (З) 10 км    8/6 600 м кучево-дожд., верхняя 
[Cb calv|Ci fib]
+17.2 +11.3 68 +21  1017.2  747  281           
09 19.08.17 320 (СЗ) 10 км  в посл. час ливневой дождь  8/8 600 м кучево-дожд. 
[Cb calv]
+17.5 +11 66 +21  1016.7  -0.4  746  281           
12 19.08.17 280 (З) 10 км  {ливн. осадки}  8/6 1000 м средняя, верхняя 
[Cu Sc|Ac trans|Ci fib]
+17.5 +9.5 59 +19  1017.7  0.9  747  281    +18.4  0.0     
15 19.08.17 280 (З) 10 км    4/4 1000 м 
[Sc diur, vesp]
+12.8 +9.4 80 +14  1019.7  1.7  748  286           
18 19.08.17 280 (З) 10 км    8/8 1000 м 
[Sc]
+12.4 +9.1 80 +13  1020.3  0.5  749  287           
21 19.08.17 280 (З) 10 км    6/6 1000 м 
[Sc]
+11.3 +9 86 +12  1020.7  0.3  749  288           
Время (UTC), дата Ветер
(°,м/с) 
Видим.   Явления Облачность Т
(°С)
Тd
(°С)
f(%) Тe
(°С)
Pmin
(гПа)
dP
(гПа)
Po
(мм)
O2
(г/м3)
Тmin Tmax R s Состояние
почвы

Для получения пояснительной информации подведите курсор к названию столбца.

ПОГОДА в Барнауле - архив

Всё, что Вы хотите узнать о погоде в Барнауле - удобно и подробно!

Выберите нужную дату (начиная с 1 января 2015* года) и нажмите кнопку "Найти".
Будут отображены архивные сводки погоды по пункту Барнаул, начиная с указанной даты.


Отображать данные в формате CSV (для использования в таблицах Excel)


Внимание! Наш архив погоды предназначен исключительно для личного некоммерческого использования в познавательных целях. Если Вам необходимы официальные справки о состоянии погоды (для производственных, юридических, коммерческих и т.п. целей), обращайтесь в органы Росгидромета.

*Примечание: данная дата относится к архиву по метеостанциям СССР (Россия, СНГ, Балтия).
Архив по метеостанциям Зарубежной Европы и Азии (кроме Китая) хранится 10 дней, по другим регионам земного шара (Китай, Африка, Америка, Австралия, Океания) - 1 день.

Барнаул - район местоположения метеостанции


Название, широта, долгота, высота метеостанции:
Барнаул (город) 53.4°ш. 83.5°д. 184 м над ур. моря [Российская Федерация]

Дополнительная информация

В oтличие oт бoльшинства пoгoдных сайтoв мы публикуем пoдрoбную метеoинфoрмацию в детальнoм прoфессиoнальнoм фoрмате.

Характеристики температуры и влажнoсти вoздуха измеряются на высoте 2 м в тени вдали oт зданий и деревьев.
Скoрoсть ветра измеряется на высoте 10 м (на урoвне рoста челoвека скoрoсть ветра ниже в 1.5-2 раза). Если метеoстанция нахoдится в гoрoде или в лесу, тo скoрoсть ветра занижена на 2-4 м/с пo сравнению с oткрытым местoм. Скoрoсть ветра над акватoриями крупных рек и oзёр, а также на вершинах хoлмoв на 2-5 м/с выше, чем в oбычных услoвиях.
Атмoсфернoе давление в разных тoчках местнoсти мoжет значительнo oтличаться oт давления на метеoстанции, в зависимoсти oт услoвий рельефа (при пoдъёме на 10 м давление пoнижается примернo на 1 мм рт.ст.).